Powrót do katalogu

CZ-4B DEB

AktywnySSO
NORAD 25733·DEBRIS·🇨🇳 China

Wystrzelony May 10, 1999 z Taiyuan Satellite Launch Center

Loading…

Następne Przeloty (najbliższe 24 godziny)

TLE

ŚwieżeSource: Space-Track

Epoka: Sep 14, 2026, 13:12 UTC

1 25733U 99025D   26257.55057257  .00000245  00000-0  13787-3 0  9993
2 25733  98.6746 299.1747 0013126 282.4797  77.4911 14.18999760412698

Śledź CZ-4B DEB w czasie rzeczywistym z AllMySat

Download on the App Store